| time (UTC) | temp F | wind direction | speed MPH | gust MPH | rain 1hr in | rain 24hr in | rain mn in | humidity % | barometer mb |
| 20260505102019 | 60 | 301 | 6.0 | 8.0 | 0.10 | 0.25 | 0.13 | 89 | 1007.8 |
| 20260505101019 | 60 | 264 | 5.0 | 7.0 | 0.10 | 0.25 | 0.13 | 88 | 1007.7 |
| 20260505100019 | 61 | 305 | 3.0 | 6.0 | 0.10 | 0.25 | 0.13 | 86 | 1007.6 |
| 20260505095019 | 62 | 348 | 3.0 | 5.0 | 0.03 | 0.17 | 0.05 | 86 | 1007.3 |
| 20260505094022 | 62 | 341 | 2.0 | 3.0 | 0.00 | 0.15 | 0.02 | 87 | 1006.9 |
| 20260505093059 | 62 | 298 | 2.0 | 3.0 | 0.00 | 0.15 | 0.02 | 85 | 1006.6 |
| 20260505092019 | 63 | 309 | 2.0 | 3.0 | 0.00 | 0.15 | 0.02 | 83 | 1006.7 |
| 20260505091020 | 63 | 291 | 1.0 | 2.0 | 0.00 | 0.15 | 0.02 | 79 | 1006.6 |
| 20260505090019 | 63 | 284 | 1.0 | 2.0 | 0.02 | 0.15 | 0.02 | 79 | 1006.6 |
| 20260505085057 | 63 | 320 | 0.0 | 2.0 | 0.02 | 0.15 | 0.02 | 79 | 1006.5 |
| 20260505084017 | 64 | 22 | 1.0 | 2.0 | 0.02 | 0.15 | 0.02 | 79 | 1006.6 |
| 20260505083100 | 65 | 298 | 1.0 | 2.0 | 0.02 | 0.15 | 0.02 | 76 | 1006.6 |
| 20260505082020 | 66 | 267 | 1.0 | 2.0 | 0.02 | 0.15 | 0.02 | 71 | 1006.7 |
| 20260505081020 | 67 | 342 | 0.0 | 1.0 | 0.02 | 0.15 | 0.02 | 65 | 1006.8 |
| 20260505080057 | 67 | 296 | 0.0 | 1.0 | 0.00 | 0.13 | 0.00 | 61 | 1006.9 |
| 20260505075018 | 68 | 291 | 0.0 | 1.0 | 0.00 | 0.13 | 0.00 | 59 | 1006.8 |
| 20260505074018 | 69 | 296 | 1.0 | 2.0 | 0.00 | 0.13 | 0.00 | 59 | 1006.8 |
| 20260505073018 | 69 | 285 | 1.0 | 3.0 | 0.00 | 0.13 | 0.00 | 58 | 1006.9 |
| 20260505072018 | 70 | 279 | 1.0 | 3.0 | 0.00 | 0.13 | 0.00 | 59 | 1007.0 |
| 20260505071058 | 70 | 295 | 2.0 | 5.0 | 0.00 | 0.13 | 0.00 | 60 | 1007.2 |
| 20260505070018 | 70 | 266 | 2.0 | 6.0 | 0.00 | 0.13 | 0.00 | 62 | 1007.2 |
| 20260505065058 | 70 | 273 | 3.0 | 4.0 | 0.00 | 0.13 | 0.00 | 62 | 1006.1 |
| 20260505064018 | 70 | 274 | 2.0 | 3.0 | 0.00 | 0.13 | 0.00 | 62 | 1005.7 |
| 20260505063019 | 70 | 273 | 2.0 | 5.0 | 0.00 | 0.13 | 0.00 | 62 | 1005.7 |
| 20260505062018 | 70 | 271 | 2.0 | 4.0 | 0.00 | 0.13 | 0.00 | 61 | 1005.7 |
| 20260505061139 | 70 | 270 | 2.0 | 4.0 | 0.00 | 0.13 | 0.00 | 62 | 1005.7 |
| 20260505060059 | 70 | 268 | 2.0 | 4.0 | 0.00 | 0.13 | 0.00 | 61 | 1005.6 |
| 20260505055019 | 70 | 271 | 2.0 | 3.0 | 0.00 | 0.13 | 0.00 | 61 | 1005.4 |
| 20260505054019 | 70 | 274 | 2.0 | 6.0 | 0.00 | 0.13 | 0.00 | 61 | 1005.3 |
| 20260505053019 | 70 | 269 | 2.0 | 4.0 | 0.00 | 0.13 | 0.00 | 61 | 1005.1 |
| 20260505052019 | 70 | 265 | 2.0 | 6.0 | 0.00 | 0.13 | 0.00 | 61 | 1004.9 |
| 20260505051020 | 70 | 269 | 2.0 | 5.0 | 0.00 | 0.13 | 0.00 | 61 | 1004.8 |
| 20260505041017 | 71 | 274 | 2.0 | 4.0 | 0.00 | 0.13 | 0.00 | 59 | 1004.8 |
| 20260505040018 | 72 | 272 | 2.0 | 4.0 | 0.00 | 0.13 | 0.00 | 58 | 1004.9 |
| 20260505035101 | 72 | 272 | 2.0 | 4.0 | 0.00 | 0.13 | 0.00 | 59 | 1005.0 |
| 20260505034020 | 72 | 267 | 2.0 | 5.0 | 0.00 | 0.13 | 0.00 | 59 | 1005.0 |
| 20260505033058 | 72 | 273 | 2.0 | 7.0 | 0.00 | 0.13 | 0.00 | 58 | 1005.1 |
| 20260505032138 | 72 | 273 | 2.0 | 4.0 | 0.00 | 0.13 | 0.00 | 58 | 1005.0 |
| 20260505031018 | 72 | 272 | 2.0 | 4.0 | 0.00 | 0.13 | 0.00 | 58 | 1005.0 |
| 20260505030138 | 72 | 273 | 2.0 | 4.0 | 0.00 | 0.13 | 0.00 | 59 | 1004.8 |
| 20260505025018 | 72 | 278 | 2.0 | 3.0 | 0.00 | 0.13 | 0.00 | 59 | 1004.8 |
| 20260505024018 | 73 | 288 | 2.0 | 4.0 | 0.00 | 0.13 | 0.00 | 59 | 1004.5 |
| 20260505023018 | 73 | 272 | 2.0 | 4.0 | 0.00 | 0.13 | 0.00 | 58 | 1004.4 |
| 20260505022019 | 73 | 267 | 2.0 | 3.0 | 0.00 | 0.13 | 0.00 | 57 | 1004.2 |
| 20260505021019 | 73 | 277 | 2.0 | 2.0 | 0.00 | 0.13 | 0.00 | 57 | 1004.0 |
| 20260505020019 | 73 | 277 | 2.0 | 3.0 | 0.00 | 0.13 | 0.00 | 56 | 1003.9 |
| 20260505015059 | 73 | 275 | 2.0 | 3.0 | 0.00 | 0.13 | 0.00 | 56 | 1003.7 |
| 20260505014019 | 74 | 270 | 2.0 | 4.0 | 0.00 | 0.13 | 0.00 | 55 | 1003.6 |
| 20260505013019 | 74 | 275 | 2.0 | 4.0 | 0.00 | 0.13 | 0.00 | 55 | 1003.5 |
| 20260505012020 | 74 | 274 | 2.0 | 4.0 | 0.00 | 0.13 | 0.00 | 55 | 1003.5 |
| 20260505011017 | 75 | 274 | 2.0 | 4.0 | 0.00 | 0.13 | 0.00 | 55 | 1003.4 |
| 20260505010019 | 75 | 275 | 2.0 | 3.0 | 0.00 | 0.13 | 0.00 | 55 | 1003.2 |
| 20260505005019 | 76 | 274 | 2.0 | 3.0 | 0.00 | 0.13 | 0.00 | 55 | 1003.1 |
| 20260505004100 | 76 | 275 | 1.0 | 3.0 | 0.00 | 0.13 | 0.00 | 53 | 1002.9 |
| 20260505003017 | 77 | 254 | 2.0 | 5.0 | 0.00 | 0.13 | 0.00 | 53 | 1002.8 |
| 20260505002017 | 78 | 274 | 2.0 | 3.0 | 0.00 | 0.13 | 0.00 | 52 | 1002.8 |
| 20260505001020 | 79 | 262 | 2.0 | 5.0 | 0.00 | 0.13 | 0.00 | 50 | 1002.7 |
| 20260505000020 | 79 | 274 | 2.0 | 4.0 | 0.00 | 0.13 | 0.00 | 51 | 1002.7 |
| 20260504235017 | 79 | 271 | 3.0 | 6.0 | 0.00 | 0.13 | 0.00 | 50 | 1002.6 |
| 20260504234017 | 79 | 270 | 2.0 | 7.0 | 0.00 | 0.13 | 0.00 | 51 | 1002.7 |
| 20260504233017 | 78 | 271 | 2.0 | 4.0 | 0.00 | 0.13 | 0.00 | 52 | 1002.8 |
| 20260504232021 | 78 | 270 | 2.0 | 4.0 | 0.00 | 0.13 | 0.00 | 54 | 1002.9 |
| 20260504231018 | 79 | 267 | 2.0 | 5.0 | 0.00 | 0.13 | 0.00 | 59 | 1003.1 |
| 20260504225018 | 79 | 274 | 2.0 | 3.0 | 0.00 | 0.13 | 0.13 | 58 | 1003.5 |
| 20260504224018 | 79 | 273 | 2.0 | 3.0 | 0.00 | 0.13 | 0.13 | 57 | 1003.6 |
| 20260504223018 | 80 | 279 | 2.0 | 3.0 | 0.00 | 0.13 | 0.13 | 57 | 1003.7 |
| 20260504222021 | 80 | 271 | 2.0 | 4.0 | 0.00 | 0.13 | 0.13 | 54 | 1003.7 |
| 20260504221018 | 82 | 273 | 2.0 | 4.0 | 0.00 | 0.13 | 0.13 | 54 | 1003.6 |
| 20260504220019 | 82 | 260 | 1.0 | 3.0 | 0.00 | 0.13 | 0.13 | 52 | 1003.7 |
| 20260504215058 | 81 | 273 | 1.0 | 4.0 | 0.00 | 0.13 | 0.13 | 53 | 1003.8 |
| 20260504214019 | 80 | 268 | 2.0 | 4.0 | 0.00 | 0.13 | 0.13 | 57 | 1003.8 |
| 20260504213019 | 78 | 269 | 1.0 | 4.0 | 0.00 | 0.13 | 0.13 | 57 | 1003.8 |
| 20260504212019 | 77 | 273 | 2.0 | 4.0 | 0.00 | 0.13 | 0.13 | 58 | 1004.0 |
| 20260504211019 | 76 | 276 | 2.0 | 5.0 | 0.00 | 0.13 | 0.13 | 60 | 1004.3 |
| 20260504210019 | 76 | 265 | 1.0 | 4.0 | 0.00 | 0.13 | 0.13 | 61 | 1004.4 |
| 20260504205059 | 74 | 282 | 1.0 | 4.0 | 0.00 | 0.13 | 0.13 | 64 | 1004.5 |
| 20260504204031 | 72 | 284 | 1.0 | 3.0 | 0.00 | 0.13 | 0.13 | 67 | 1004.5 |
| 20260504203057 | 71 | 227 | 1.0 | 3.0 | 0.00 | 0.13 | 0.13 | 69 | 1004.8 |
| 20260504202057 | 70 | 240 | 1.0 | 3.0 | 0.00 | 0.13 | 0.13 | 72 | 1005.0 |
| 20260504201016 | 69 | 188 | 1.0 | 2.0 | 0.00 | 0.13 | 0.13 | 74 | 1004.9 |
| 20260504200017 | 68 | 243 | 1.0 | 2.0 | 0.01 | 0.13 | 0.13 | 75 | 1005.0 |
| 20260504195032 | 67 | 49 | 1.0 | 2.0 | 0.02 | 0.13 | 0.13 | 78 | 1005.3 |
| 20260504194032 | 64 | 112 | 1.0 | 3.0 | 0.02 | 0.13 | 0.13 | 86 | 1005.5 |
| 20260504193032 | 63 | 26 | 1.0 | 2.0 | 0.11 | 0.13 | 0.13 | 88 | 1005.1 |
| 20260504192017 | 63 | 72 | 1.0 | 2.0 | 0.12 | 0.13 | 0.13 | 90 | 1005.4 |
| 20260504191017 | 63 | 292 | 2.0 | 2.0 | 0.12 | 0.13 | 0.13 | 89 | 1006.5 |
| 20260504190018 | 63 | 267 | 2.0 | 3.0 | 0.11 | 0.12 | 0.12 | 88 | 1006.7 |
| 20260504185018 | 63 | 359 | 2.0 | 3.0 | 0.10 | 0.10 | 0.10 | 86 | 1006.3 |
| 20260504184018 | 65 | 39 | 2.0 | 3.0 | 0.10 | 0.10 | 0.10 | 84 | 1006.2 |
| 20260504183017 | 65 | 294 | 0.0 | 1.0 | 0.02 | 0.02 | 0.02 | 78 | 1007.0 |
| 20260504181018 | 65 | 296 | 1.0 | 2.0 | 0.00 | 0.00 | 0.00 | 76 | 1007.1 |
| 20260504180019 | 66 | 320 | 1.0 | 2.0 | 0.00 | 0.00 | 0.00 | 76 | 1006.9 |
| 20260504175018 | 66 | 310 | 1.0 | 2.0 | 0.00 | 0.00 | 0.00 | 73 | 1006.7 |
| 20260504174019 | 66 | 337 | 0.0 | 1.0 | 0.00 | 0.00 | 0.00 | 73 | 1006.6 |
| 20260504173018 | 67 | 313 | 0.0 | 1.0 | 0.00 | 0.00 | 0.00 | 71 | 1006.8 |
| 20260504172019 | 67 | 289 | 1.0 | 4.0 | 0.00 | 0.00 | 0.00 | 69 | 1006.6 |
| 20260504171019 | 67 | 292 | 0.0 | 2.0 | 0.00 | 0.00 | 0.00 | 68 | 1006.5 |
| 20260504151018 | 70 | 274 | 1.0 | 3.0 | 0.00 | 0.00 | 0.00 | 56 | 1008.3 |
| 20260504141018 | 69 | 275 | 2.0 | 4.0 | 0.00 | 0.00 | 0.00 | 60 | 1008.1 |